K7OLI-13 Weather Reports


time (UTC)temp
C
wind
direction
speed
KPH
gust
KPH
rain 1hr
cm
rain 24hr
cm
rain mn
cm
humidity
%
barometer
mb
20260906053535 15 179 3.2 4.8 0.00 0.00 0.00 90
20260906052531 15 179 4.8 4.8 0.00 0.00 0.00 90
20260906051533 15 195 1.6 4.8 0.00 0.00 0.00 90
20260906050543 15 236 4.8 6.4 0.00 0.00 0.00 89
20260906045531 15 224 4.8 6.4 0.00 0.00 0.00 89
20260906044520 15 217 6.4 6.4 0.00 0.00 0.00 88
20260906043548 15 238 6.4 8.0 0.00 0.00 0.00 88
20260906042536 15 236 8.0 11.3 0.00 0.00 0.00 87
20260906041526 15 223 6.4 9.7 0.00 0.00 0.00 87
20260906040534 15 231 8.0 9.7 0.00 0.00 0.00 86
20260906035523 16 211 6.4 9.7 0.00 0.00 0.00 85
20260906034551 16 231 9.7 12.9 0.00 0.00 0.00 85
20260906033520 16 219 6.4 11.3 0.00 0.00 0.00 84
20260906032528 16 223 9.7 12.9 0.00 0.00 0.00 83
20260906031556 16 219 9.7 14.5 0.00 0.00 0.00 82
20260906030527 16 217 8.0 12.9 0.00 0.00 0.00 81
20260906025533 17 221 9.7 12.9 0.00 0.00 0.00 80
20260906024521 17 209 8.0 9.7 0.00 0.00 0.00 78
20260906023530 18 217 9.7 12.9 0.00 0.00 0.00 76
20260906022520 18 221 8.0 14.5 0.00 0.00 0.00 73
20260906021527 18 226 6.4 8.0 0.00 0.00 0.00 71
20260906020535 18 220 9.7 11.3 0.00 0.00 0.00 70
20260906015527 19 203 9.7 11.3 0.00 0.00 0.00 69
20260906014534 19 215 9.7 12.9 0.00 0.00 0.00 67
20260906013542 20 225 12.9 16.1 0.00 0.00 0.00 67
20260906012529 20 218 12.9 17.7 0.00 0.00 0.00 66
20260906011537 20 238 4.8 8.0 0.00 0.00 0.00 61
20260906010527 20 234 8.0 11.3 0.00 0.00 0.00 60
20260906005635 21 226 9.7 14.5 0.00 0.00 0.00 59
20260906004544 21 231 9.7 11.3 0.00 0.00 0.00 58
20260906003532 21 254 6.4 9.7 0.00 0.00 0.00 57
20260906002521 21 297 4.8 8.0 0.00 0.00 0.00 56
20260906001529 22 265 8.0 12.9 0.00 0.00 0.00 56
20260906000537 22 247 6.4 9.7 0.00 0.00 0.00 56
20260905235527 22 236 6.4 11.3 0.00 0.00 0.00 55
20260905234535 21 242 6.4 9.7 0.00 0.00 0.00 56
20260905233544 21 323 4.8 9.7 0.00 0.00 0.00 57
20260905232531 21 270 4.8 9.7 0.00 0.00 0.00 56
20260905231521 22 230 9.7 12.9 0.00 0.00 0.00 56
20260905230529 21 235 6.4 9.7 0.00 0.00 0.00 58
20260905225537 21 242 9.7 12.9 0.00 0.00 0.00 57
20260905224527 22 246 9.7 12.9 0.00 0.00 0.00 56
20260905223615 22 220 11.3 16.1 0.00 0.00 0.00 56
20260905222523 21 296 4.8 9.7 0.00 0.00 0.00 58
20260905221532 21 211 9.7 12.9 0.00 0.00 0.00 56
20260905220521 21 269 4.8 9.7 0.00 0.00 0.00 57
20260905215529 21 210 9.7 14.5 0.00 0.00 0.00 56
20260905214616 22 230 8.0 17.7 0.00 0.00 0.00 56
20260905213527 21 229 6.4 8.0 0.00 0.00 0.00 57
20260905212533 21 166 3.2 6.4 0.00 0.00 0.00 58
20260905211522 22 267 4.8 8.0 0.00 0.00 0.00 57
20260905210530 20 238 8.0 11.3 0.00 0.00 0.00 61
20260905205519 20 229 6.4 9.7 0.00 0.00 0.00 61
20260905204548 20 300 3.2 6.4 0.00 0.00 0.00 62
20260905203536 20 301 4.8 9.7 0.00 0.00 0.00 62
20260905202527 20 273 3.2 8.0 0.00 0.00 0.00 61
20260905201533 20 4 4.8 11.3 0.00 0.00 0.00 62
20260905200522 20 250 4.8 8.0 0.00 0.00 0.00 60
20260905195537 20 173 8.0 9.7 0.00 0.00 0.00 60
20260905194520 20 114 4.8 8.0 0.00 0.00 0.00 62
20260905193527 20 178 3.2 4.8 0.00 0.00 0.00 64
20260905192535 20 184 6.4 11.3 0.00 0.00 0.00 66
20260905191527 18 275 3.2 4.8 0.00 0.00 0.00 69
20260905190535 18 121 4.8 6.4 0.00 0.00 0.00 70
20260905185522 18 147 6.4 8.0 0.00 0.00 0.00 68
20260905184529 18 134 4.8 8.0 0.00 0.00 0.00 69
20260905183519 18 121 6.4 8.0 0.00 0.00 0.00 69
20260905182527 18 151 6.4 9.7 0.00 0.00 0.00 71
20260905181535 18 100 6.4 11.3 0.00 0.00 0.00 72
20260905180524 18 54 4.8 8.0 0.00 0.00 0.00 72
20260905175535 18 109 4.8 8.0 0.00 0.00 0.00 72
20260905174521 17 80 4.8 8.0 0.00 0.00 0.00 74
20260905173550 17 82 8.0 9.7 0.00 0.00 0.00 75
20260905172519 17 38 6.4 8.0 0.00 0.00 0.00 74
20260905171527 18 61 4.8 8.0 0.00 0.00 0.00 75
20260905170535 17 150 3.2 6.4 0.00 0.00 0.00 77
20260905165527 17 112 1.6 4.8 0.00 0.00 0.00 79
20260905164535 16 62 3.2 4.8 0.00 0.00 0.00 82
20260905163543 16 46 4.8 6.4 0.00 0.00 0.00 82
20260905162530 16 15 3.2 6.4 0.00 0.00 0.00 81
20260905161519 16 44 1.6 3.2 0.00 0.00 0.00 85
20260905160608 15 61 3.2 6.4 0.00 0.00 0.00 88
20260905155536 15 61 4.8 6.4 0.00 0.00 0.00 88
20260905154527 15 77 6.4 9.7 0.00 0.00 0.00 88
20260905153533 15 118 6.4 8.0 0.00 0.00 0.00 89
20260905152522 14 114 4.8 6.4 0.00 0.00 0.00 90
20260905151551 13 91 3.2 6.4 0.00 0.00 0.00 93
20260905150520 13 70 3.2 6.4 0.00 0.05 0.00 94
20260905145528 13 89 4.8 4.8 0.00 0.08 0.00 95
20260905144536 13 0.0 0.0 0.00 0.08 0.00 96
20260905143527 13 57 3.2 4.8 0.00 0.08 0.00 96
20260905142614 13 75 1.6 3.2 0.00 0.08 0.00 98
20260905141523 13 0.0 0.0 0.00 0.08 0.00 99
20260905140531 12 0.0 0.0 0.00 0.08 0.00 99
20260905135520 12 0.0 0.0 0.00 0.08 0.00 99
20260905134528 12 0.0 0.0 0.00 0.10 0.00 99
20260905133556 12 0.0 0.0 0.00 0.10 0.00 99
20260905132527 12 0.0 0.0 0.00 0.10 0.00 99
20260905131534 12 0.0 0.0 0.00 0.10 0.00 99
20260905130543 12 0.0 0.0 0.00 0.10 0.00 99
20260905125531 12 0.0 0.0 0.00 0.10 0.00 99
20260905124522 12 46 3.2 6.4 0.00 0.10 0.00 99
20260905123529 12 0.0 0.0 0.00 0.10 0.00 99
20260905122537 12 0.0 0.0 0.00 0.10 0.00 99
20260905121527 12 45 1.6 3.2 0.00 0.10 0.00 99
20260905120535 12 68 3.2 4.8 0.00 0.10 0.00 99
20260905115524 12 0.0 0.0 0.00 0.10 0.00 99
20260905114532 12 40 1.6 4.8 0.00 0.10 0.00 99
20260905113521 12 62 3.2 4.8 0.00 0.10 0.00 99
20260905112529 12 29 0.0 4.8 0.00 0.10 0.00 99
20260905111537 12 0.0 0.0 0.00 0.10 0.00 99
20260905110527 12 36 1.6 3.2 0.00 0.10 0.00 99
20260905105535 12 0.0 3.2 0.00 0.10 0.00 99
20260905104524 12 0.0 0.0 0.00 0.10 0.00 99
20260905103532 12 39 1.6 3.2 0.00 0.10 0.00 99
20260905102527 12 51 1.6 4.8 0.00 0.13 0.00 99
20260905101550 12 45 0.0 3.2 0.00 0.15 0.00 99
20260905100519 12 0.0 0.0 0.00 0.15 0.00 99
20260905095548 12 0.0 0.0 0.00 0.18 0.00 99
20260905094535 12 0.0 0.0 0.00 0.18 0.00 99
20260905093527 12 0.0 0.0 0.00 0.18 0.00 99
20260905092533 12 0.0 0.0 0.00 0.18 0.00 99
20260905091522 12 0.0 0.0 0.00 0.20 0.00 99
20260905090530 12 0.0 0.0 0.00 0.23 0.00 99
20260905085521 12 0.0 0.0 0.00 0.28 0.00 99
20260905084548 12 0.0 0.0 0.00 0.30 0.00 98
20260905083556 12 0.0 0.0 0.00 0.36 0.00 98
20260905082527 12 0.0 0.0 0.00 0.38 0.00 98
20260905081533 13 45 3.2 3.2 0.00 0.41 0.00 98
20260905080542 13 45 3.2 4.8 0.00 0.41 0.00 97
20260905075551 13 42 4.8 6.4 0.00 0.41 0.00 97
20260905074520 13 53 4.8 4.8 0.00 0.41 0.00 97
20260905073548 13 61 3.2 4.8 0.00 0.41 0.00 97
20260905072556 13 57 4.8 6.4 0.00 0.41 0.00 97
20260905071527 13 46 4.8 6.4 0.00 0.41 0.00 96
20260905070536 13 47 4.8 6.4 0.00 0.41 0.00 96
20260905065521 13 48 4.8 6.4 0.00 0.41 0.41 95
20260905064530 13 50 4.8 6.4 0.00 0.41 0.41 95
20260905063519 13 77 3.2 4.8 0.00 0.41 0.41 94
20260905062546 13 62 3.2 4.8 0.00 0.41 0.41 93
20260905061535 13 59 4.8 6.4 0.00 0.41 0.41 93
20260905060527 13 90 0.0 3.2 0.00 0.41 0.41 92
20260905055535 13 42 3.2 4.8 0.00 0.41 0.41 92
20260905054542 13 42 4.8 8.0 0.00 0.41 0.41 92